SCP
0 0 0 0 0 0 0 0 0 0 0 0 0 1 1 1 1 1 1 1 1 0
0 0 0 0 0 0 0 0 0 0 0 0 1 0 0 0 0 0 0 1 1 0
0 0 0 0 0 0 0 0 0 0 0 0 0 0 0 0 0 0 0 0 0 0
0 0 0 0 0 0 0 0 0 0 0 0 0 0 1 0 0 0 0 0 0 0
0 0 0 0 0 0 0 0 0 0 0 0 0 0 0 0 0 0 0 0 0 0
0 0 0 0 0 0 0 0 0 0 0 0 0 0 0 0 0 0 0 0 0 0
0 0 0 0 0 0 0 0 0 0 0 0 0 0 0 0 0 0 0 0 0 0
0 0 0 0 0 0 0 0 0 0 0 0 0 0 -0 -0 -0 0 0 0 0 0
0 0 0 0 0 -0 -0 -0 -0 -0 0 0 -0 -0 -0 -0 -0 -0 -0 -0 -0 -0
0 0 0 0 -0 0 -0 0 0 0 -0 -0 -0 0 0 0 0 0 0 0 0 0
0 0 0 0 0 0 0 0 0 0 0 0 0 0 -0 0 0 0 0 0 0 0
0 0 0 0 0 0 0 0 0 0 0 0 0 -0 -0 0 0 0 0 0 0 0
0 0 0 0 0 0 0 0 0 -0 -0 0 0 0 0 0 -0 -0 0 -0 -0 -0
0 0 -0 -0 -0 -0 -0 -0 -0 -0 -0 -0 -0 -0 -0 -0 -0 -0 0 0 0 0
Wind_Speed_500mb
53 53 53 56 58 58 57 57 57 57 57 59 59 57 55 55 54 53 47 42 37 28
61 60 62 64 64 64 65 63 60 57 57 58 57 58 59 57 54 51 48 46 38 41
50 52 54 55 57 58 60 63 67 68 59 56 53 57 59 61 56 53 51 56 46 41
44 44 44 43 44 44 44 44 48 51 56 53 51 50 42 38 42 44 49 48 44 35
47 46 45 46 44 38 37 40 40 43 44 51 51 43 43 42 41 45 50 40 44 53
47 48 47 44 43 36 31 28 33 35 32 33 35 39 33 31 31 30 31 36 47 52
41 41 39 36 34 31 28 30 35 26 23 20 17 20 30 27 28 33 36 41 47 47
36 34 32 32 30 24 25 29 31 27 23 13 13 17 25 27 31 31 34 32 30 28
33 35 31 32 32 29 29 28 30 28 28 27 25 27 28 30 31 25 22 22 23 19
32 30 30 31 30 28 30 25 24 24 25 25 25 27 25 19 15 14 16 19 10 4
32 31 31 31 29 29 25 22 27 28 26 25 24 21 15 9 4 7 17 14 17 18
34 32 32 33 32 29 30 31 33 37 48 52 49 39 31 36 35 38 32 30 24 22
32 32 33 33 34 36 42 46 45 40 41 40 45 39 41 42 38 46 39 32 23 19
29 30 34 37 34 31 37 41 47 52 55 56 54 53 50 45 39 36 31 28 27 28
Wind_Direction_500mb
289 285 280 276 274 275 274 272 270 268 267 264 264 265 265 266 268 272 270 271 274 274
301 297 291 284 281 280 276 273 272 271 270 268 265 264 261 260 264 269 269 267 271 275
310 308 304 302 297 290 284 279 276 273 274 274 273 268 264 262 263 261 267 268 275 270
319 317 315 311 308 302 297 295 291 283 272 270 270 274 275 275 274 276 286 281 279 275
327 327 325 320 319 314 309 307 302 304 298 277 271 280 281 284 284 285 281 283 287 294
332 334 336 339 336 327 326 331 330 317 303 307 278 274 288 287 290 293 293 298 306 308
335 339 340 348 350 343 340 329 339 343 332 314 305 273 286 292 295 286 299 303 294 298
348 349 351 355 354 349 348 349 348 348 351 347 319 303 302 303 303 291 293 298 299 301
9 4 5 4 3 358 350 346 345 344 338 335 320 309 303 298 296 301 303 306 298 263
-0 1 4 2 1 1 4 7 3 356 347 338 325 313 306 301 307 309 301 287 246 310
10 18 14 13 20 22 11 12 13 14 14 19 15 11 11 9 38 114 103 71 69 67
21 20 19 30 35 38 47 51 53 60 68 59 50 50 68 92 89 86 79 61 61 41
28 40 47 50 56 61 69 74 74 68 57 56 60 84 86 76 70 71 59 51 45 30
48 56 62 68 62 62 69 67 65 67 68 71 71 71 66 61 56 56 52 52 42 28
Wind_Speed_850mb
53 53 53 56 58 58 57 57 57 57 57 59 59 57 55 55 54 53 47 42 37 28
61 60 62 64 64 64 65 63 60 57 57 58 57 58 59 57 54 51 48 46 38 41
50 52 54 55 57 58 60 63 67 68 59 56 53 57 59 61 56 53 51 56 46 41
44 44 44 43 44 44 44 44 48 51 56 53 51 50 42 38 42 44 49 48 44 35
47 46 45 46 44 38 37 40 40 43 44 51 51 43 43 42 41 45 50 40 44 53
47 48 47 44 43 36 31 28 33 35 32 33 35 39 33 31 31 30 31 36 47 52
41 41 39 36 34 31 28 30 35 26 23 20 17 20 30 27 28 33 36 41 47 47
36 34 32 32 30 24 25 29 31 27 23 13 13 17 25 27 31 31 34 32 30 28
33 35 31 32 32 29 29 28 30 28 28 27 25 27 28 30 31 25 22 22 23 19
32 30 30 31 30 28 30 25 24 24 25 25 25 27 25 19 15 14 16 19 10 4
32 31 31 31 29 29 25 22 27 28 26 25 24 21 15 9 4 7 17 14 17 18
34 32 32 33 32 29 30 31 33 37 48 52 49 39 31 36 35 38 32 30 24 22
32 32 33 33 34 36 42 46 45 40 41 40 45 39 41 42 38 46 39 32 23 19
29 30 34 37 34 31 37 41 47 52 55 56 54 53 50 45 39 36 31 28 27 28
Wind_Direction_850mb
289 285 280 276 274 275 274 272 270 268 267 264 264 265 265 266 268 272 270 271 274 274
301 297 291 284 281 280 276 273 272 271 270 268 265 264 261 260 264 269 269 267 271 275
310 308 304 302 297 290 284 279 276 273 274 274 273 268 264 262 263 261 267 268 275 270
319 317 315 311 308 302 297 295 291 283 272 270 270 274 275 275 274 276 286 281 279 275
327 327 325 320 319 314 309 307 302 304 298 277 271 280 281 284 284 285 281 283 287 294
332 334 336 339 336 327 326 331 330 317 303 307 278 274 288 287 290 293 293 298 306 308
335 339 340 348 350 343 340 329 339 343 332 314 305 273 286 292 295 286 299 303 294 298
348 349 351 355 354 349 348 349 348 348 351 347 319 303 302 303 303 291 293 298 299 301
9 4 5 4 3 358 350 346 345 344 338 335 320 309 303 298 296 301 303 306 298 263
-0 1 4 2 1 1 4 7 3 356 347 338 325 313 306 301 307 309 301 287 246 310
10 18 14 13 20 22 11 12 13 14 14 19 15 11 11 9 38 114 103 71 69 67
21 20 19 30 35 38 47 51 53 60 68 59 50 50 68 92 89 86 79 61 61 41
28 40 47 50 56 61 69 74 74 68 57 56 60 84 86 76 70 71 59 51 45 30
48 56 62 68 62 62 69 67 65 67 68 71 71 71 66 61 56 56 52 52 42 28